| time (UTC) | temp F | wind direction | speed MPH | gust MPH | rain 1hr in | rain 24hr in | rain mn in | humidity % | barometer mb |
| 20260506160929 | 75 | 225 | 12.0 | 12.0 | 0.00 | 0.00 | 0.00 | 39 | 1009.1 |
| 20260506160429 | 75 | 292 | 1.0 | 9.0 | 0.00 | 0.00 | 0.00 | 39 | 1009.1 |
| 20260506155928 | 76 | 225 | 6.0 | 14.0 | 0.00 | 0.00 | 0.00 | 38 | 1009.1 |
| 20260506155428 | 76 | 292 | 8.0 | 8.0 | 0.00 | 0.00 | 0.00 | 37 | 1009.0 |
| 20260506154928 | 77 | 202 | 3.0 | 8.0 | 0.00 | 0.00 | 0.00 | 36 | 1009.0 |
| 20260506154428 | 77 | 202 | 8.0 | 14.0 | 0.00 | 0.00 | 0.00 | 35 | 1009.1 |
| 20260506153927 | 78 | 202 | 7.0 | 13.0 | 0.00 | 0.00 | 0.00 | 35 | 1009.1 |
| 20260506153427 | 79 | 157 | 5.0 | 19.0 | 0.00 | 0.00 | 0.00 | 34 | 1009.0 |
| 20260506152926 | 80 | 225 | 6.0 | 15.0 | 0.00 | 0.00 | 0.00 | 34 | 1009.0 |
| 20260506152426 | 81 | 157 | 2.0 | 17.0 | 0.00 | 0.00 | 0.00 | 33 | 1009.0 |
| 20260506151926 | 82 | 202 | 16.0 | 20.0 | 0.00 | 0.00 | 0.00 | 33 | 1009.0 |
| 20260506151426 | 83 | 202 | 12.0 | 18.0 | 0.00 | 0.00 | 0.00 | 34 | 1009.0 |
| 20260506150925 | 82 | 225 | 7.0 | 18.0 | 0.00 | 0.00 | 0.00 | 35 | 1009.0 |
| 20260506150425 | 82 | 292 | 8.0 | 19.0 | 0.00 | 0.00 | 0.00 | 36 | 1009.0 |
| 20260506145925 | 81 | 225 | 18.0 | 20.0 | 0.00 | 0.00 | 0.00 | 36 | 1009.0 |
| 20260506145424 | 81 | 247 | 12.0 | 20.0 | 0.00 | 0.00 | 0.00 | 36 | 1009.0 |
| 20260506144924 | 81 | 247 | 16.0 | 20.0 | 0.00 | 0.00 | 0.00 | 35 | 1009.0 |
| 20260506144424 | 81 | 202 | 12.0 | 20.0 | 0.00 | 0.00 | 0.00 | 34 | 1009.0 |
| 20260506143924 | 81 | 292 | 8.0 | 19.0 | 0.00 | 0.00 | 0.00 | 35 | 1009.0 |
| 20260506143423 | 80 | 225 | 18.0 | 21.0 | 0.00 | 0.00 | 0.00 | 34 | 1009.0 |
| 20260506142923 | 80 | 225 | 10.0 | 21.0 | 0.00 | 0.00 | 0.00 | 35 | 1009.0 |
| 20260506142423 | 79 | 225 | 9.0 | 22.0 | 0.00 | 0.00 | 0.00 | 36 | 1009.0 |
| 20260506141922 | 79 | 202 | 21.0 | 29.0 | 0.00 | 0.00 | 0.00 | 36 | 1009.0 |
| 20260506141422 | 79 | 225 | 19.0 | 26.0 | 0.00 | 0.00 | 0.00 | 36 | 1009.0 |
| 20260506140922 | 79 | 225 | 10.0 | 24.0 | 0.00 | 0.00 | 0.00 | 37 | 1008.9 |
| 20260506140421 | 79 | 292 | 10.0 | 27.0 | 0.00 | 0.00 | 0.00 | 37 | 1009.0 |
| 20260506135921 | 79 | 225 | 11.0 | 21.0 | 0.00 | 0.00 | 0.00 | 37 | 1009.0 |
| 20260506135421 | 79 | 247 | 8.0 | 22.0 | 0.00 | 0.00 | 0.00 | 37 | 1009.0 |
| 20260506134921 | 79 | 202 | 22.0 | 22.0 | 0.00 | 0.00 | 0.00 | 37 | 1009.0 |
| 20260506134420 | 80 | 225 | 22.0 | 22.0 | 0.00 | 0.00 | 0.00 | 37 | 1009.0 |
| 20260506133920 | 80 | 337 | 4.0 | 24.0 | 0.00 | 0.00 | 0.00 | 37 | 1009.0 |
| 20260506133420 | 80 | 202 | 14.0 | 23.0 | 0.00 | 0.00 | 0.00 | 37 | 1009.0 |
| 20260506132919 | 80 | 247 | 3.0 | 19.0 | 0.00 | 0.00 | 0.00 | 38 | 1009.0 |
| 20260506132419 | 79 | 202 | 15.0 | 15.0 | 0.00 | 0.00 | 0.00 | 38 | 1009.0 |
| 20260506131919 | 79 | 202 | 8.0 | 15.0 | 0.00 | 0.00 | 0.00 | 37 | 1008.9 |
| 20260506131419 | 78 | 292 | 2.0 | 6.0 | 0.00 | 0.00 | 0.00 | 37 | 1008.9 |
| 20260506130918 | 78 | 202 | 5.0 | 9.0 | 0.00 | 0.00 | 0.00 | 37 | 1008.9 |
| 20260506130418 | 78 | 180 | 4.0 | 9.0 | 0.00 | 0.00 | 0.00 | 36 | 1008.9 |
| 20260506125918 | 78 | 180 | 0.0 | 7.0 | 0.00 | 0.00 | 0.00 | 35 | 1008.9 |
| 20260506125417 | 78 | 90 | 2.0 | 6.0 | 0.00 | 0.00 | 0.00 | 32 | 1008.9 |
| 20260506124917 | 79 | 45 | 0.0 | 2.0 | 0.00 | 0.00 | 0.00 | 30 | 1008.9 |
| 20260506124417 | 80 | 45 | 1.0 | 6.0 | 0.00 | 0.00 | 0.00 | 29 | 1008.9 |
| 20260506123916 | 80 | 67 | 0.0 | 3.0 | 0.00 | 0.00 | 0.00 | 29 | 1008.8 |
| 20260506123416 | 80 | 90 | 2.0 | 8.0 | 0.00 | 0.00 | 0.00 | 28 | 1008.8 |
| 20260506122916 | 82 | 90 | 1.0 | 8.0 | 0.00 | 0.00 | 0.00 | 27 | 1008.8 |
| 20260506122416 | 83 | 67 | 6.0 | 8.0 | 0.00 | 0.00 | 0.00 | 26 | 1008.8 |
| 20260506121915 | 84 | 337 | 2.0 | 3.0 | 0.00 | 0.00 | 0.00 | 29 | 1008.8 |
| 20260506121415 | 83 | 292 | 2.0 | 4.0 | 0.00 | 0.00 | 0.00 | 31 | 1008.8 |
| 20260506120915 | 83 | 292 | 1.0 | 5.0 | 0.00 | 0.00 | 0.00 | 30 | 1008.8 |
| 20260506120414 | 82 | 292 | 0.0 | 4.0 | 0.00 | 0.00 | 0.00 | 30 | 1008.7 |
| 20260506115914 | 82 | 337 | 0.0 | 7.0 | 0.00 | 0.00 | 0.00 | 28 | 1008.7 |
| 20260506115414 | 84 | 22 | 3.0 | 5.0 | 0.00 | 0.00 | 0.00 | 28 | 1008.7 |
| 20260506114914 | 85 | 112 | 4.0 | 7.0 | 0.00 | 0.00 | 0.00 | 29 | 1008.7 |
| 20260506114413 | 85 | 337 | 7.0 | 7.0 | 0.00 | 0.00 | 0.00 | 30 | 1008.7 |
| 20260506113913 | 85 | 292 | 2.0 | 2.0 | 0.00 | 0.00 | 0.00 | 31 | 1008.7 |
| 20260506113413 | 85 | 292 | 2.0 | 6.0 | 0.00 | 0.00 | 0.00 | 32 | 1008.6 |
| 20260506112912 | 84 | 315 | 3.0 | 3.0 | 0.00 | 0.00 | 0.00 | 32 | 1008.6 |
| 20260506112412 | 83 | 292 | 2.0 | 6.0 | 0.00 | 0.00 | 0.00 | 34 | 1008.6 |
| 20260506111912 | 82 | 337 | 1.0 | 4.0 | 0.00 | 0.00 | 0.00 | 34 | 1008.6 |
| 20260506111411 | 80 | 292 | 3.0 | 6.0 | 0.00 | 0.00 | 0.00 | 34 | 1008.7 |
| 20260506110911 | 79 | 0 | 0.0 | 4.0 | 0.00 | 0.00 | 0.00 | 35 | 1008.8 |
| 20260506110411 | 78 | 22 | 0.0 | 6.0 | 0.00 | 0.00 | 0.00 | 34 | 1008.8 |
| 20260506105911 | 79 | 45 | 6.0 | 8.0 | 0.00 | 0.00 | 0.00 | 34 | 1009.1 |
| 20260506105410 | 79 | 315 | 0.0 | 6.0 | 0.00 | 0.00 | 0.00 | 34 | 1009.3 |
| 20260506104910 | 79 | 22 | 4.0 | 6.0 | 0.00 | 0.00 | 0.00 | 34 | 1009.2 |
| 20260506104410 | 79 | 292 | 2.0 | 8.0 | 0.00 | 0.00 | 0.00 | 35 | 1009.5 |
| 20260506103909 | 80 | 45 | 2.0 | 6.0 | 0.00 | 0.00 | 0.00 | 35 | 1009.6 |
| 20260506103409 | 80 | 22 | 5.0 | 8.0 | 0.00 | 0.00 | 0.00 | 36 | 1009.7 |
| 20260506102909 | 78 | 292 | 1.0 | 4.0 | 0.00 | 0.00 | 0.00 | 37 | 1009.8 |
| 20260506102409 | 78 | 315 | 1.0 | 7.0 | 0.00 | 0.00 | 0.00 | 37 | 1009.9 |
| 20260506101908 | 77 | 337 | 4.0 | 4.0 | 0.00 | 0.00 | 0.00 | 37 | 1010.0 |
| 20260506101408 | 77 | 45 | 1.0 | 6.0 | 0.00 | 0.00 | 0.00 | 36 | 1010.0 |
| 20260506100908 | 78 | 22 | 1.0 | 3.0 | 0.00 | 0.00 | 0.00 | 36 | 1010.2 |
| 20260506100407 | 79 | 22 | 1.0 | 4.0 | 0.00 | 0.00 | 0.00 | 36 | 1010.2 |
| 20260506095907 | 79 | 0 | 2.0 | 8.0 | 0.00 | 0.00 | 0.00 | 36 | 1010.3 |
| 20260506095407 | 80 | 22 | 4.0 | 5.0 | 0.00 | 0.00 | 0.00 | 36 | 1010.3 |
| 20260506094906 | 79 | 292 | 1.0 | 5.0 | 0.00 | 0.00 | 0.00 | 38 | 1010.3 |
| 20260506094406 | 78 | 22 | 0.0 | 6.0 | 0.00 | 0.00 | 0.00 | 38 | 1010.5 |
| 20260506093906 | 78 | 90 | 4.0 | 4.0 | 0.00 | 0.00 | 0.00 | 39 | 1010.6 |
| 20260506093406 | 78 | 45 | 4.0 | 4.0 | 0.00 | 0.00 | 0.00 | 40 | 1010.7 |
| 20260506092905 | 78 | 0 | 0.0 | 3.0 | 0.00 | 0.00 | 0.00 | 39 | 1010.6 |
| 20260506092405 | 78 | 67 | 0.0 | 2.0 | 0.00 | 0.00 | 0.00 | 39 | 1010.7 |
| 20260506091905 | 79 | 67 | 1.0 | 5.0 | 0.00 | 0.00 | 0.00 | 39 | 1010.7 |
| 20260506091404 | 80 | 45 | 4.0 | 4.0 | 0.00 | 0.00 | 0.00 | 40 | 1010.7 |
| 20260506090904 | 79 | 292 | 0.0 | 5.0 | 0.00 | 0.00 | 0.00 | 42 | 1010.8 |
| 20260506090404 | 78 | 315 | 0.0 | 8.0 | 0.00 | 0.00 | 0.00 | 42 | 1010.9 |
| 20260506085904 | 77 | 292 | 5.0 | 5.0 | 0.00 | 0.00 | 0.00 | 43 | 1010.9 |
| 20260506085403 | 76 | 315 | 0.0 | 6.0 | 0.00 | 0.00 | 0.00 | 44 | 1010.9 |
| 20260506084903 | 75 | 292 | 0.0 | 2.0 | 0.00 | 0.00 | 0.00 | 48 | 1010.8 |
| 20260506084403 | 74 | 22 | 0.0 | 2.0 | 0.00 | 0.00 | 0.00 | 46 | 1010.8 |
| 20260506083902 | 73 | 0 | 0.0 | 4.0 | 0.00 | 0.00 | 0.00 | 47 | 1010.8 |
| 20260506083402 | 73 | 45 | 4.0 | 4.0 | 0.00 | 0.00 | 0.00 | 47 | 1010.9 |
| 20260506082902 | 73 | 45 | 1.0 | 5.0 | 0.00 | 0.00 | 0.00 | 48 | 1010.9 |
| 20260506082402 | 73 | 22 | 4.0 | 4.0 | 0.00 | 0.00 | 0.00 | 49 | 1010.9 |
| 20260506081901 | 73 | 67 | 2.0 | 4.0 | 0.00 | 0.00 | 0.00 | 48 | 1010.9 |
| 20260506081401 | 72 | 112 | 1.0 | 5.0 | 0.00 | 0.00 | 0.00 | 49 | 1010.9 |
| 20260506080901 | 72 | 90 | 3.0 | 3.0 | 0.00 | 0.00 | 0.00 | 50 | 1010.9 |
| 20260506080400 | 71 | 45 | 1.0 | 4.0 | 0.00 | 0.00 | 0.00 | 50 | 1010.9 |
| 20260506073359 | 72 | 22 | 1.0 | 4.0 | 0.00 | 0.00 | 0.00 | 50 | 1011.1 |
| 20260506072858 | 71 | 90 | 0.0 | 1.0 | 0.00 | 0.00 | 0.00 | 51 | 1011.1 |
| 20260506072358 | 70 | 90 | 0.0 | 3.0 | 0.00 | 0.00 | 0.00 | 51 | 1011.1 |
| 20260506071858 | 70 | 90 | 3.0 | 4.0 | 0.00 | 0.00 | 0.00 | 51 | 1011.1 |
| 20260506071357 | 70 | 67 | 2.0 | 2.0 | 0.00 | 0.00 | 0.00 | 52 | 1011.0 |
| 20260506070857 | 70 | 67 | 0.0 | 1.0 | 0.00 | 0.00 | 0.00 | 51 | 1011.1 |
| 20260506070357 | 70 | 67 | 0.0 | 2.0 | 0.00 | 0.00 | 0.00 | 51 | 1011.1 |
| 20260506062354 | 69 | 45 | 4.0 | 4.0 | 0.00 | 0.00 | 0.00 | 52 | 1011.3 |
| 20260506061854 | 69 | 67 | 0.0 | 3.0 | 0.00 | 0.00 | 0.00 | 53 | 1011.3 |
| 20260506061354 | 67 | 67 | 2.0 | 3.0 | 0.00 | 0.00 | 0.00 | 54 | 1011.3 |
| 20260506060854 | 67 | 45 | 1.0 | 3.0 | 0.00 | 0.00 | 0.00 | 54 | 1011.3 |
| 20260506060353 | 66 | 67 | 3.0 | 3.0 | 0.00 | 0.00 | 0.00 | 56 | 1011.3 |
| 20260506051350 | 66 | 337 | 0.0 | 1.0 | 0.00 | 0.00 | 0.00 | 58 | 1011.4 |
| 20260506050850 | 65 | 0 | 0.0 | 2.0 | 0.00 | 0.00 | 0.00 | 60 | 1011.4 |
| 20260506050350 | 64 | 67 | 0.0 | 0.0 | 0.00 | 0.00 | 0.00 | 60 | 1011.3 |
| 20260506044849 | 61 | 67 | 0.0 | 0.0 | 0.00 | 0.00 | 0.00 | 64 | 1011.3 |
| 20260506044349 | 60 | 67 | 0.0 | 0.0 | 0.00 | 0.00 | 0.00 | 64 | 1011.3 |
| 20260506043848 | 60 | 67 | 0.0 | 0.0 | 0.00 | 0.00 | 0.00 | 66 | 1011.2 |
| 20260506043348 | 59 | 67 | 0.0 | 0.0 | 0.00 | 0.00 | 0.00 | 66 | 1011.2 |
| 20260506042848 | 59 | 67 | 0.0 | 1.0 | 0.00 | 0.00 | 0.00 | 66 | 1011.1 |
| 20260506042347 | 59 | 67 | 0.0 | 0.0 | 0.00 | 0.00 | 0.00 | 69 | 1011.0 |
| 20260506041847 | 57 | 67 | 0.0 | 0.0 | 0.00 | 0.00 | 0.00 | 71 | 1011.1 |
| 20260506041347 | 55 | 67 | 0.0 | 0.0 | 0.00 | 0.00 | 0.00 | 72 | 1011.0 |
| 20260506040847 | 54 | 67 | 0.0 | 1.0 | 0.00 | 0.00 | 0.00 | 72 | 1011.0 |
| 20260506040346 | 54 | 67 | 0.0 | 1.0 | 0.00 | 0.00 | 0.00 | 73 | 1011.0 |
| 20260506035846 | 54 | 67 | 0.0 | 0.0 | 0.00 | 0.00 | 0.00 | 73 | 1011.0 |
| 20260506035346 | 54 | 67 | 0.0 | 0.0 | 0.00 | 0.00 | 0.00 | 74 | 1011.0 |
| 20260506034845 | 53 | 67 | 0.0 | 0.0 | 0.00 | 0.00 | 0.00 | 76 | 1010.9 |
| 20260506034345 | 51 | 67 | 0.0 | 0.0 | 0.00 | 0.00 | 0.00 | 77 | 1011.0 |
| 20260506033845 | 50 | 67 | 0.0 | 1.0 | 0.00 | 0.00 | 0.00 | 78 | 1010.9 |
| 20260506033344 | 50 | 67 | 0.0 | 0.0 | 0.00 | 0.00 | 0.00 | 79 | 1010.9 |
| 20260506032844 | 49 | 67 | 0.0 | 0.0 | 0.00 | 0.00 | 0.00 | 79 | 1010.9 |
| 20260506032344 | 48 | 67 | 0.0 | 1.0 | 0.00 | 0.00 | 0.00 | 79 | 1010.8 |
| 20260506031844 | 48 | 67 | 0.0 | 0.0 | 0.00 | 0.00 | 0.00 | 79 | 1010.8 |
| 20260506031343 | 48 | 67 | 0.0 | 0.0 | 0.00 | 0.00 | 0.00 | 78 | 1010.8 |
| 20260506030843 | 48 | 67 | 0.0 | 0.0 | 0.00 | 0.00 | 0.00 | 78 | 1010.8 |
| 20260506030343 | 48 | 67 | 0.0 | 0.0 | 0.00 | 0.00 | 0.00 | 77 | 1010.7 |
| 20260506025842 | 48 | 67 | 0.0 | 0.0 | 0.00 | 0.00 | 0.00 | 78 | 1010.7 |
| 20260506025342 | 49 | 67 | 0.0 | 0.0 | 0.00 | 0.00 | 0.00 | 77 | 1010.7 |
| 20260506024842 | 49 | 67 | 0.0 | 0.0 | 0.00 | 0.00 | 0.00 | 76 | 1010.6 |
| 20260506024342 | 49 | 67 | 0.0 | 0.0 | 0.00 | 0.00 | 0.00 | 76 | 1010.6 |
| 20260506023841 | 49 | 67 | 0.0 | 0.0 | 0.00 | 0.00 | 0.00 | 77 | 1010.6 |
| 20260506023341 | 49 | 67 | 0.0 | 0.0 | 0.00 | 0.00 | 0.00 | 77 | 1010.6 |
| 20260506022841 | 49 | 67 | 0.0 | 0.0 | 0.00 | 0.00 | 0.00 | 77 | 1010.6 |
| 20260506022340 | 50 | 67 | 0.0 | 0.0 | 0.00 | 0.00 | 0.00 | 77 | 1010.6 |
| 20260506021840 | 50 | 67 | 0.0 | 2.0 | 0.00 | 0.00 | 0.00 | 77 | 1010.5 |
| 20260506021340 | 50 | 67 | 2.0 | 3.0 | 0.00 | 0.00 | 0.00 | 77 | 1010.6 |
| 20260506020840 | 50 | 67 | 1.0 | 2.0 | 0.00 | 0.00 | 0.00 | 77 | 1010.6 |
| 20260506020339 | 50 | 67 | 0.0 | 1.0 | 0.00 | 0.00 | 0.00 | 76 | 1010.6 |
| 20260506015839 | 50 | 67 | 0.0 | 1.0 | 0.00 | 0.00 | 0.00 | 76 | 1010.5 |
| 20260506015339 | 50 | 67 | 0.0 | 2.0 | 0.00 | 0.00 | 0.00 | 76 | 1010.4 |
| 20260506014838 | 50 | 90 | 0.0 | 0.0 | 0.00 | 0.00 | 0.00 | 75 | 1010.5 |
| 20260506014338 | 50 | 90 | 0.0 | 0.0 | 0.00 | 0.00 | 0.00 | 75 | 1010.4 |
| 20260506013838 | 50 | 90 | 0.0 | 2.0 | 0.00 | 0.00 | 0.00 | 75 | 1010.4 |
| 20260506013337 | 50 | 90 | 0.0 | 1.0 | 0.00 | 0.00 | 0.00 | 74 | 1010.6 |
| 20260506012837 | 50 | 90 | 0.0 | 3.0 | 0.00 | 0.00 | 0.00 | 73 | 1010.5 |
| 20260506012337 | 51 | 67 | 0.0 | 2.0 | 0.00 | 0.00 | 0.00 | 73 | 1010.5 |
| 20260506011837 | 51 | 67 | 0.0 | 3.0 | 0.00 | 0.00 | 0.00 | 72 | 1010.5 |
| 20260506011336 | 51 | 67 | 2.0 | 3.0 | 0.00 | 0.00 | 0.00 | 72 | 1010.5 |
| 20260506010836 | 51 | 67 | 0.0 | 2.0 | 0.00 | 0.00 | 0.00 | 72 | 1010.5 |
| 20260506010336 | 51 | 67 | 0.0 | 1.0 | 0.00 | 0.00 | 0.00 | 71 | 1010.5 |
| 20260506005835 | 51 | 45 | 0.0 | 0.0 | 0.00 | 0.00 | 0.00 | 71 | 1010.5 |
| 20260506005335 | 51 | 45 | 0.0 | 0.0 | 0.00 | 0.00 | 0.00 | 71 | 1010.4 |
| 20260506004835 | 51 | 45 | 0.0 | 1.0 | 0.00 | 0.00 | 0.00 | 71 | 1010.4 |
| 20260506004335 | 51 | 45 | 1.0 | 1.0 | 0.00 | 0.00 | 0.00 | 70 | 1010.3 |
| 20260506003834 | 51 | 45 | 1.0 | 1.0 | 0.00 | 0.00 | 0.00 | 70 | 1010.3 |
| 20260506003334 | 52 | 45 | 0.0 | 0.0 | 0.00 | 0.00 | 0.00 | 70 | 1010.3 |
| 20260506002834 | 52 | 45 | 0.0 | 0.0 | 0.00 | 0.00 | 0.00 | 70 | 1010.2 |
| 20260506002333 | 52 | 45 | 0.0 | 1.0 | 0.00 | 0.00 | 0.00 | 70 | 1010.2 |
| 20260506001833 | 52 | 45 | 0.0 | 0.0 | 0.00 | 0.00 | 0.00 | 70 | 1010.1 |
| 20260506001333 | 52 | 45 | 0.0 | 0.0 | 0.00 | 0.00 | 0.00 | 70 | 1009.9 |
| 20260506000833 | 52 | 45 | 0.0 | 1.0 | 0.00 | 0.00 | 0.00 | 70 | 1010.0 |
| 20260506000332 | 53 | 45 | 0.0 | 3.0 | 0.00 | 0.00 | 0.00 | 70 | 1009.9 |
| 20260505235832 | 53 | 45 | 2.0 | 2.0 | 0.00 | 0.00 | 0.00 | 70 | 1009.9 |
| 20260505235332 | 53 | 45 | 0.0 | 0.0 | 0.00 | 0.00 | 0.00 | 70 | 1009.9 |
| 20260505234832 | 53 | 45 | 0.0 | 0.0 | 0.00 | 0.00 | 0.00 | 70 | 1009.8 |
| 20260505234331 | 53 | 45 | 0.0 | 2.0 | 0.00 | 0.00 | 0.00 | 70 | 1009.8 |
| 20260505233831 | 53 | 45 | 2.0 | 3.0 | 0.00 | 0.00 | 0.00 | 70 | 1009.8 |
| 20260505233330 | 53 | 45 | 2.0 | 3.0 | 0.00 | 0.00 | 0.00 | 69 | 1009.9 |
| 20260505232830 | 53 | 45 | 0.0 | 0.0 | 0.00 | 0.00 | 0.00 | 69 | 1009.9 |
| 20260505232330 | 54 | 45 | 2.0 | 3.0 | 0.00 | 0.00 | 0.00 | 68 | 1009.9 |
| 20260505231830 | 54 | 45 | 0.0 | 1.0 | 0.00 | 0.00 | 0.00 | 68 | 1010.0 |
| 20260505231329 | 54 | 45 | 0.0 | 1.0 | 0.00 | 0.00 | 0.00 | 68 | 1010.0 |
| 20260505230829 | 55 | 45 | 0.0 | 2.0 | 0.00 | 0.00 | 0.00 | 67 | 1010.0 |
| 20260505230329 | 55 | 45 | 0.0 | 2.0 | 0.00 | 0.00 | 0.00 | 67 | 1010.1 |
| 20260505225828 | 55 | 67 | 1.0 | 9.0 | 0.00 | 0.00 | 0.00 | 68 | 1009.9 |
| 20260505225328 | 55 | 45 | 3.0 | 3.0 | 0.00 | 0.00 | 0.00 | 68 | 1010.0 |
| 20260505224828 | 55 | 45 | 1.0 | 3.0 | 0.00 | 0.00 | 0.00 | 67 | 1009.9 |
| 20260505224327 | 55 | 45 | 1.0 | 3.0 | 0.00 | 0.00 | 0.00 | 67 | 1010.0 |
| 20260505223827 | 55 | 45 | 1.0 | 2.0 | 0.00 | 0.00 | 0.00 | 66 | 1009.9 |
| 20260505223327 | 55 | 45 | 2.0 | 3.0 | 0.00 | 0.00 | 0.00 | 66 | 1009.9 |
| 20260505222827 | 56 | 45 | 2.0 | 4.0 | 0.00 | 0.00 | 0.00 | 66 | 1009.9 |
| 20260505222326 | 56 | 45 | 2.0 | 3.0 | 0.00 | 0.00 | 0.00 | 66 | 1009.8 |
| 20260505221826 | 56 | 67 | 2.0 | 3.0 | 0.00 | 0.00 | 0.00 | 66 | 1009.9 |
| 20260505221326 | 56 | 45 | 2.0 | 4.0 | 0.00 | 0.00 | 0.00 | 66 | 1009.8 |
| 20260505220825 | 56 | 45 | 2.0 | 4.0 | 0.00 | 0.00 | 0.00 | 66 | 1010.0 |
| 20260505220325 | 56 | 67 | 0.0 | 2.0 | 0.00 | 0.00 | 0.00 | 65 | 1010.0 |
| 20260505215825 | 57 | 67 | 1.0 | 1.0 | 0.00 | 0.00 | 0.00 | 65 | 1010.0 |
| 20260505215325 | 57 | 67 | 0.0 | 3.0 | 0.00 | 0.00 | 0.00 | 65 | 1009.9 |
| 20260505214824 | 57 | 67 | 1.0 | 2.0 | 0.00 | 0.00 | 0.00 | 64 | 1009.9 |
| 20260505214324 | 57 | 45 | 1.0 | 3.0 | 0.00 | 0.00 | 0.00 | 64 | 1009.9 |
| 20260505213824 | 57 | 67 | 0.0 | 2.0 | 0.00 | 0.00 | 0.00 | 64 | 1009.9 |
| 20260505213323 | 57 | 67 | 0.0 | 4.0 | 0.00 | 0.00 | 0.00 | 64 | 1010.0 |
| 20260505212823 | 57 | 45 | 2.0 | 8.0 | 0.00 | 0.00 | 0.00 | 64 | 1010.0 |
| 20260505212323 | 58 | 45 | 1.0 | 3.0 | 0.00 | 0.00 | 0.00 | 63 | 1010.1 |
| 20260505211823 | 58 | 45 | 0.0 | 3.0 | 0.00 | 0.00 | 0.00 | 63 | 1010.0 |
| 20260505211322 | 59 | 22 | 0.0 | 4.0 | 0.00 | 0.00 | 0.00 | 62 | 1010.0 |
| 20260505210822 | 59 | 22 | 3.0 | 6.0 | 0.00 | 0.00 | 0.00 | 63 | 1010.0 |
| 20260505210322 | 59 | 45 | 0.0 | 3.0 | 0.00 | 0.00 | 0.00 | 62 | 1010.0 |
| 20260505205821 | 59 | 45 | 2.0 | 3.0 | 0.00 | 0.00 | 0.00 | 62 | 1009.9 |
| 20260505205321 | 59 | 67 | 0.0 | 4.0 | 0.00 | 0.00 | 0.00 | 62 | 1009.8 |
| 20260505204821 | 59 | 67 | 0.0 | 3.0 | 0.00 | 0.00 | 0.00 | 62 | 1009.8 |
| 20260505204320 | 59 | 67 | 3.0 | 4.0 | 0.00 | 0.00 | 0.00 | 61 | 1009.8 |
| 20260505203820 | 59 | 45 | 0.0 | 2.0 | 0.00 | 0.00 | 0.00 | 60 | 1009.9 |
| 20260505203320 | 60 | 45 | 2.0 | 2.0 | 0.00 | 0.00 | 0.00 | 58 | 1009.9 |
| 20260505202820 | 61 | 22 | 0.0 | 4.0 | 0.00 | 0.00 | 0.00 | 56 | 1009.9 |
| 20260505202319 | 61 | 337 | 3.0 | 3.0 | 0.00 | 0.00 | 0.00 | 54 | 1009.8 |
| 20260505201819 | 62 | 202 | 0.0 | 3.0 | 0.00 | 0.00 | 0.00 | 53 | 1009.7 |
| 20260505201319 | 62 | 202 | 0.0 | 2.0 | 0.00 | 0.00 | 0.00 | 53 | 1009.7 |
| 20260505200818 | 62 | 202 | 2.0 | 2.0 | 0.00 | 0.00 | 0.00 | 53 | 1009.7 |
| 20260505200318 | 63 | 180 | 0.0 | 1.0 | 0.00 | 0.00 | 0.00 | 52 | 1009.5 |
| 20260505195818 | 62 | 180 | 0.0 | 1.0 | 0.00 | 0.00 | 0.00 | 52 | 1009.4 |
| 20260505195318 | 62 | 180 | 0.0 | 1.0 | 0.00 | 0.00 | 0.00 | 52 | 1009.5 |
| 20260505194817 | 62 | 180 | 0.0 | 0.0 | 0.00 | 0.00 | 0.00 | 52 | 1009.5 |
| 20260505194317 | 63 | 180 | 0.0 | 0.0 | 0.00 | 0.00 | 0.00 | 51 | 1009.4 |
| 20260505193817 | 63 | 180 | 0.0 | 1.0 | 0.00 | 0.00 | 0.00 | 51 | 1009.4 |
| 20260505193316 | 63 | 180 | 0.0 | 1.0 | 0.00 | 0.00 | 0.00 | 51 | 1009.5 |
| 20260505192816 | 63 | 202 | 0.0 | 0.0 | 0.00 | 0.00 | 0.00 | 51 | 1009.5 |
| 20260505192316 | 63 | 202 | 0.0 | 0.0 | 0.00 | 0.00 | 0.00 | 51 | 1009.4 |
| 20260505191815 | 63 | 202 | 0.0 | 2.0 | 0.00 | 0.00 | 0.00 | 50 | 1009.4 |
| 20260505191315 | 64 | 202 | 0.0 | 0.0 | 0.00 | 0.00 | 0.00 | 50 | 1009.4 |
| 20260505190815 | 64 | 202 | 0.0 | 0.0 | 0.00 | 0.00 | 0.00 | 50 | 1009.3 |
| 20260505190315 | 64 | 202 | 0.0 | 2.0 | 0.00 | 0.00 | 0.00 | 49 | 1009.4 |
| 20260505185814 | 64 | 202 | 0.0 | 2.0 | 0.00 | 0.00 | 0.00 | 49 | 1009.4 |
| 20260505185314 | 65 | 202 | 0.0 | 1.0 | 0.00 | 0.00 | 0.00 | 48 | 1009.5 |
| 20260505184814 | 65 | 202 | 0.0 | 0.0 | 0.00 | 0.00 | 0.00 | 48 | 1009.4 |
| 20260505184313 | 65 | 202 | 0.0 | 0.0 | 0.00 | 0.00 | 0.00 | 47 | 1009.2 |
| 20260505183813 | 66 | 202 | 0.0 | 0.0 | 0.00 | 0.00 | 0.00 | 47 | 1009.2 |
| 20260505183313 | 66 | 202 | 0.0 | 0.0 | 0.00 | 0.00 | 0.00 | 47 | 1009.2 |
| 20260505182813 | 66 | 202 | 0.0 | 0.0 | 0.00 | 0.00 | 0.00 | 47 | 1009.1 |
| 20260505182312 | 66 | 202 | 0.0 | 1.0 | 0.00 | 0.00 | 0.00 | 47 | 1009.2 |
| 20260505181812 | 66 | 202 | 0.0 | 3.0 | 0.00 | 0.00 | 0.00 | 47 | 1009.0 |
| 20260505181312 | 67 | 202 | 1.0 | 5.0 | 0.00 | 0.00 | 0.00 | 47 | 1009.0 |
| 20260505180811 | 67 | 90 | 0.0 | 3.0 | 0.00 | 0.00 | 0.00 | 47 | 1008.8 |
| 20260505180311 | 67 | 90 | 3.0 | 4.0 | 0.00 | 0.00 | 0.00 | 47 | 1008.6 |
| 20260505175811 | 67 | 90 | 0.0 | 3.0 | 0.00 | 0.00 | 0.00 | 47 | 1008.4 |
| 20260505175310 | 68 | 67 | 3.0 | 3.0 | 0.00 | 0.00 | 0.00 | 46 | 1008.3 |
| 20260505174810 | 68 | 90 | 0.0 | 1.0 | 0.00 | 0.00 | 0.00 | 45 | 1008.5 |
| 20260505174310 | 69 | 90 | 0.0 | 0.0 | 0.00 | 0.00 | 0.00 | 45 | 1008.3 |
| 20260505173810 | 69 | 90 | 0.0 | 6.0 | 0.00 | 0.00 | 0.00 | 45 | 1008.3 |
| 20260505173309 | 69 | 67 | 3.0 | 6.0 | 0.00 | 0.00 | 0.00 | 44 | 1008.3 |
| 20260505172809 | 71 | 67 | 6.0 | 11.0 | 0.00 | 0.00 | 0.00 | 43 | 1008.3 |
| 20260505172309 | 72 | 67 | 6.0 | 9.0 | 0.00 | 0.00 | 0.00 | 39 | 1008.2 |
| 20260505171808 | 73 | 337 | 0.0 | 1.0 | 0.00 | 0.00 | 0.00 | 37 | 1008.2 |
| 20260505171308 | 74 | 292 | 0.0 | 0.0 | 0.00 | 0.00 | 0.00 | 38 | 1008.2 |
| 20260505170808 | 74 | 292 | 0.0 | 0.0 | 0.00 | 0.00 | 0.00 | 38 | 1008.2 |
| 20260505170308 | 74 | 292 | 0.0 | 0.0 | 0.00 | 0.00 | 0.00 | 38 | 1008.2 |
| 20260505165807 | 75 | 292 | 0.0 | 2.0 | 0.00 | 0.00 | 0.00 | 37 | 1008.2 |
| 20260505165307 | 75 | 292 | 0.0 | 2.0 | 0.00 | 0.00 | 0.00 | 37 | 1008.2 |
| 20260505164807 | 75 | 292 | 0.0 | 3.0 | 0.00 | 0.00 | 0.00 | 37 | 1008.2 |
| 20260505164306 | 75 | 292 | 0.0 | 4.0 | 0.00 | 0.00 | 0.00 | 37 | 1008.2 |
| 20260505163806 | 75 | 292 | 0.0 | 2.0 | 0.00 | 0.00 | 0.00 | 37 | 1008.2 |
| 20260505163306 | 75 | 292 | 0.0 | 4.0 | 0.00 | 0.00 | 0.00 | 36 | 1008.2 |
| 20260505162805 | 75 | 292 | 0.0 | 4.0 | 0.00 | 0.00 | 0.00 | 36 | 1008.2 |
| 20260505162307 | 75 | 292 | 0.0 | 4.0 | 0.00 | 0.00 | 0.00 | 37 | 1008.2 |
| 20260505161805 | 75 | 292 | 0.0 | 1.0 | 0.00 | 0.00 | 0.00 | 36 | 1008.2 |
| 20260505161305 | 76 | 315 | 0.0 | 4.0 | 0.00 | 0.00 | 0.00 | 34 | 1008.2 |